Location: Observatoire de Paris
(48.8363°N, 2.3365°E)
Time: 02:39:00
(UTC+01:00)

Vanguard 3 - Pass Details

Date: 08 August 2021
Orbit: 510 x 3260 km, 33.3° (Epoch: 18 September)

Event Time Altitude Azimuth Distance (km) Brightness Sun altitude
Rises 23:33:20 0° 272° (W) 6,669 12.1 -22.7°
Reaches altitude 10° 23:40:01 10° 256° (WSW) 5,977 11.6 -23.1°
Maximum altitude 23:50:10 17° 223° (SW) 5,575 11.1 -23.7°
Enters shadow 23:56:27 14° 203° (SSW) 5,765 11.0 -24.0°
